Weather History for KT65 - April, 2013

Change the Weather History Date:

Tuesday, April 9, 2013

  Actual Average (KMFE) Record (KMFE)
Temperature  
Mean Temperature 82 °F 76 °F  
Max Temperature 93 °F 86 °F 105 °F (1963)
Min Temperature 72 °F 65 °F 43 °F (1973)
Degree Days  
Heating Degree Days 0 0  
Month to date heating degree days 3  
Since 1 July heating degree days 574  
Cooling Degree Days 18 11  
Month to date cooling degree days 93  
Year to date cooling degree days 470  
Growing Degree Days 32 (Base 50)    
Moisture  
Dew Point 68 °F    
Average Humidity 67    
Maximum Humidity 85    
Minimum Humidity 42    
Precipitation  
Precipitation 0.00 in 0.03 in 0.25 in (1988)
Month to date precipitation 0.27  
Year to date precipitation 3.46  
Sea Level Pressure  
Sea Level Pressure 29.63 in    
Wind  
Wind Speed 18 mph (SSE)    
Max Wind Speed 22 mph    
Max Gust Speed 34 mph    
Visibility 8 miles    
Events      
T = Trace of Precipitation, MM = Missing Value Source: NWS Daily Summary

Daily Weather History Graph

Daily Weather History Graph

Search for Another Location

Airport or City:

Trip Planner

Search our weather history database for the weather conditions in past years. The results will help you decide how hot, cold, wet, or windy it might be!

Date:

Astronomy

Apr. 09, 2013 Rise Set
Actual Time 7:14 AM CDT 7:52 PM CDT
Civil Twilight 6:50 AM CDT 8:16 PM CDT
Nautical Twilight 6:23 AM CDT 8:43 PM CDT
Astronomical Twilight 5:55 AM CDT 9:11 PM CDT
Moon 6:35 AM CDT (4/9) 7:28 PM CDT (4/9)
Length of Visible Light 13h 25m
Length of Day
12h 38m
Waning Crescent, 1% of the Moon is Illuminated
Apr 9
Waning Crescent
Apr 10
New
Apr 18
First Quarter
Apr 25
Full
May 2
Last Quarter

Hourly Weather History & Observations

Time (CDT) Temp. Heat Index Dew Point Humidity Pressure Visibility Wind Dir Wind Speed Gust Speed Precip Events Conditions
12:15 AM 75.4 °F - 67.5 °F 76% 29.69 in 10.0 mi SSE 16.1 mph 27.6 mph N/A   Overcast
12:35 AM 75.2 °F - 67.6 °F 77% 29.68 in 10.0 mi SSE 20.7 mph 28.8 mph N/A   Overcast
12:55 AM 74.5 °F - 67.6 °F 79% 29.67 in 10.0 mi SSE 16.1 mph 26.5 mph N/A   Overcast
1:15 AM 74.5 °F - 68.0 °F 80% 29.67 in 7.0 mi SSE 18.4 mph 29.9 mph N/A   Overcast
1:35 AM 74.7 °F - 68.0 °F 80% 29.67 in 10.0 mi SSE 18.4 mph 27.6 mph N/A   Overcast
1:55 AM 74.7 °F - 68.2 °F 80% 29.67 in 7.0 mi SSE 17.3 mph 27.6 mph N/A   Overcast
2:15 AM 74.3 °F - 68.0 °F 81% 29.66 in 7.0 mi SSE 20.7 mph 32.2 mph N/A   Overcast
2:35 AM 73.9 °F - 68.0 °F 82% 29.66 in 7.0 mi SSE 19.6 mph 27.6 mph N/A   Overcast
2:55 AM 73.9 °F - 68.0 °F 82% 29.66 in 7.0 mi SSE 18.4 mph 23.0 mph N/A   Overcast
3:15 AM 73.8 °F - 68.0 °F 82% 29.65 in 7.0 mi SSE 17.3 mph 25.3 mph N/A   Mostly Cloudy
3:35 AM 73.9 °F - 68.0 °F 82% 29.65 in 7.0 mi SSE 13.8 mph 24.2 mph N/A   Mostly Cloudy
3:55 AM 73.8 °F - 68.0 °F 82% 29.64 in 7.0 mi SSE 17.3 mph 26.5 mph N/A   Overcast
4:15 AM 73.6 °F - 68.0 °F 83% 29.62 in 7.0 mi SSE 16.1 mph 20.7 mph N/A   Overcast
4:35 AM 73.4 °F - 68.0 °F 83% 29.62 in 7.0 mi SSE 13.8 mph 20.7 mph N/A   Overcast
4:55 AM 73.4 °F - 68.0 °F 83% 29.62 in 7.0 mi SSE 17.3 mph 24.2 mph N/A   Mostly Cloudy
5:15 AM 73.0 °F - 68.0 °F 84% 29.61 in 7.0 mi SSE 12.7 mph 23.0 mph N/A   Mostly Cloudy
5:35 AM 73.0 °F - 68.0 °F 84% 29.62 in 7.0 mi SSE 15.0 mph 20.7 mph N/A   Mostly Cloudy
5:55 AM 73.0 °F - 68.2 °F 85% 29.62 in 7.0 mi SSE 16.1 mph 23.0 mph N/A   Mostly Cloudy
6:15 AM 72.9 °F - 68.0 °F 85% 29.62 in 7.0 mi SSE 15.0 mph 23.0 mph N/A   Scattered Clouds
6:35 AM 73.0 °F - 68.0 °F 84% 29.62 in 7.0 mi SSE 17.3 mph 21.9 mph N/A   Scattered Clouds
6:55 AM 72.9 °F - 68.0 °F 85% 29.62 in 7.0 mi SSE 15.0 mph 23.0 mph N/A   Clear
7:15 AM 73.0 °F - 68.2 °F 85% 29.63 in 7.0 mi SSE 17.3 mph 23.0 mph N/A   Clear
7:35 AM 73.4 °F - 68.4 °F 84% 29.63 in 5.0 mi South 21.9 mph 31.1 mph N/A   Haze
7:55 AM 73.6 °F - 68.2 °F 83% 29.64 in 7.0 mi SSE 16.1 mph 23.0 mph N/A   Clear
8:15 AM 74.3 °F - 68.2 °F 81% 29.64 in 7.0 mi SSE 20.7 mph 24.2 mph N/A   Scattered Clouds
8:35 AM 75.7 °F - 68.4 °F 78% 29.66 in 7.0 mi South 13.8 mph 27.6 mph N/A   Scattered Clouds
8:55 AM 77.0 °F - 68.4 °F 75% 29.67 in 7.0 mi SSE 17.3 mph 23.0 mph N/A   Scattered Clouds
9:15 AM 78.6 °F - 68.2 °F 70% 29.67 in 10.0 mi SSE 15.0 mph 24.2 mph N/A   Scattered Clouds
9:35 AM 80.1 °F 82.6 °F 67.8 °F 66% 29.68 in 10.0 mi South 13.8 mph 24.2 mph N/A   Scattered Clouds
9:55 AM 81.7 °F 84.2 °F 67.3 °F 61% 29.68 in 7.0 mi South 19.6 mph 24.2 mph N/A   Scattered Clouds
10:15 AM 82.6 °F 85.1 °F 67.1 °F 59% 29.70 in 7.0 mi South 15.0 mph 26.5 mph N/A   Mostly Cloudy
10:35 AM 81.9 °F 84.4 °F 67.3 °F 61% 29.70 in 7.0 mi South 19.6 mph 25.3 mph N/A   Overcast
10:55 AM 83.8 °F 86.7 °F 67.5 °F 58% 29.70 in 7.0 mi South 18.4 mph 26.5 mph N/A   Overcast
11:15 AM 83.1 °F 85.9 °F 67.3 °F 59% 29.69 in 7.0 mi South 17.3 mph 26.5 mph N/A   Mostly Cloudy
11:35 AM 85.5 °F 88.5 °F 67.6 °F 55% 29.68 in 7.0 mi South 16.1 mph 23.0 mph N/A   Mostly Cloudy
11:55 AM 86.5 °F 89.6 °F 67.8 °F 53% 29.67 in 10.0 mi South 15.0 mph 24.2 mph N/A   Mostly Cloudy
12:15 PM 88.9 °F 92.6 °F 67.8 °F 50% 29.67 in 10.0 mi South 17.3 mph 26.5 mph N/A   Scattered Clouds
12:35 PM 88.3 °F 91.6 °F 67.6 °F 50% 29.65 in 10.0 mi SSE 16.1 mph 20.7 mph N/A   Clear
12:55 PM 89.4 °F 92.7 °F 67.5 °F 48% 29.65 in 10.0 mi SSE 17.3 mph 23.0 mph N/A   Clear
1:15 PM 90.5 °F 93.8 °F 67.3 °F 46% 29.63 in 10.0 mi SE 17.3 mph 23.0 mph N/A   Clear
1:35 PM 90.3 °F 93.9 °F 67.3 °F 47% 29.62 in 7.0 mi SSE 17.3 mph 26.5 mph N/A   Clear
1:55 PM 92.1 °F 95.3 °F 66.9 °F 43% 29.62 in 10.0 mi SSE 17.3 mph 23.0 mph N/A   Clear
2:15 PM 91.9 °F 95.4 °F 67.1 °F 44% 29.61 in 7.0 mi SSE 16.1 mph 24.2 mph N/A   Clear
2:35 PM 92.1 °F 95.3 °F 66.6 °F 43% 29.60 in 7.0 mi South 18.4 mph 26.5 mph N/A   Clear
2:55 PM 91.8 °F 94.6 °F 66.6 °F 43% 29.59 in 7.0 mi SSE 18.4 mph 27.6 mph N/A   Clear
3:15 PM 92.8 °F 96.1 °F 66.7 °F 42% 29.58 in 7.0 mi SSE 18.4 mph 26.5 mph N/A   Clear
3:35 PM 92.1 °F 94.8 °F 66.2 °F 42% 29.57 in 7.0 mi SSE 17.3 mph 26.5 mph N/A   Clear
3:55 PM 93.0 °F 96.4 °F 66.9 °F 42% 29.56 in 7.0 mi SSE 20.7 mph 27.6 mph N/A   Clear
4:15 PM 91.2 °F 94.1 °F 66.7 °F 44% 29.55 in 7.0 mi SSE 19.6 mph 28.8 mph N/A   Clear
4:35 PM 90.3 °F 93.9 °F 67.3 °F 47% 29.55 in 7.0 mi SSE 20.7 mph 28.8 mph N/A   Clear
4:55 PM 90.3 °F 93.9 °F 67.8 °F 47% 29.55 in 7.0 mi SSE 18.4 mph 28.8 mph N/A   Clear
5:15 PM 88.9 °F 92.6 °F 68.0 °F 50% 29.55 in 10.0 mi SSE 17.3 mph 29.9 mph N/A   Clear
5:35 PM 88.2 °F 92.1 °F 68.4 °F 52% 29.55 in 10.0 mi SSE 21.9 mph 26.5 mph N/A   Clear
5:55 PM 86.9 °F 91.0 °F 68.9 °F 55% 29.55 in 10.0 mi SSE 20.7 mph 31.1 mph N/A   Clear
6:15 PM 85.8 °F 89.7 °F 69.1 °F 57% 29.54 in 10.0 mi SSE 20.7 mph 27.6 mph N/A   Clear
6:35 PM 84.0 °F 87.6 °F 68.9 °F 60% 29.55 in 10.0 mi SSE 19.6 mph 33.4 mph N/A   Clear
6:55 PM 83.1 °F 86.6 °F 68.7 °F 62% 29.56 in 10.0 mi SSE 19.6 mph 29.9 mph N/A   Clear
7:15 PM 81.9 °F 85.2 °F 68.9 °F 65% 29.56 in 10.0 mi SSE 16.1 mph 27.6 mph N/A   Clear
7:35 PM 80.4 °F 83.4 °F 68.9 °F 68% 29.57 in 10.0 mi SSE 18.4 mph 28.8 mph N/A   Clear
7:55 PM 79.2 °F - 68.9 °F 71% 29.57 in 10.0 mi SSE 15.0 mph 25.3 mph N/A   Scattered Clouds
8:15 PM 78.6 °F - 68.9 °F 72% 29.58 in 10.0 mi SSE 19.6 mph 28.8 mph N/A   Mostly Cloudy
8:35 PM 78.4 °F - 68.9 °F 72% 29.59 in 10.0 mi SSE 20.7 mph 27.6 mph N/A   Overcast
8:55 PM 78.1 °F - 69.1 °F 74% 29.60 in 10.0 mi SSE 21.9 mph 26.5 mph N/A   Overcast
9:15 PM 77.9 °F - 69.1 °F 74% 29.60 in 10.0 mi SSE 21.9 mph 31.1 mph N/A   Overcast
9:55 PM 77.9 °F - 69.4 °F 75% 29.62 in 7.0 mi SSE 15.0 mph 25.3 mph N/A   Overcast
10:15 PM 77.9 °F - 69.4 °F 75% 29.63 in 7.0 mi SSE 16.1 mph 24.2 mph N/A   Overcast
10:35 PM 77.4 °F - 69.4 °F 76% 29.64 in 7.0 mi SSE 21.9 mph 29.9 mph N/A   Overcast
10:55 PM 77.4 °F - 69.3 °F 76% 29.64 in 7.0 mi SSE 19.6 mph 31.1 mph N/A   Overcast
11:15 PM 77.4 °F - 69.3 °F 76% 29.64 in 7.0 mi SSE 18.4 mph 31.1 mph N/A   Overcast
11:35 PM 77.4 °F - 69.4 °F 76% 29.64 in 7.0 mi South 19.6 mph 27.6 mph N/A   Overcast
11:55 PM 77.4 °F - 69.4 °F 76% 29.64 in 7.0 mi SSE 21.9 mph 34.5 mph N/A   Overcast